• En España
  • Lista de países
  • Para 7 días
  • Temperatura del agua
  • Mapa Satelital
  • El tiempo en el mapa
  • Informadores
  • user-avatar
    Iniciar sesión

    Tiempo cada hora Timofeevka

    Hoy, 16 Agosto, Jueves

    Tiempo Temperatura Precipitaciones Viento Presión Humedad
    00:00 +17°C° 0 mm 4 mps 755 mmHg 73%
    01:00 +17°C° 0,5 mm 4 mps 754 mmHg 77%
    02:00 +17°C° 0,5 mm 4 mps 754 mmHg 80%
    03:00 +17°C° 0 mm 4 mps 753 mmHg 85%
    04:00 +16°C° 0,4 mm 5 mps 753 mmHg 87%
    05:00 +17°C° 0,4 mm 5 mps 752 mmHg 89%
    06:00 +17°C° 0,4 mm 5 mps 752 mmHg 90%
    07:00 +19°C° 0,6 mm 6 mps 752 mmHg 88%
    08:00 +20°C° 0,6 mm 6 mps 752 mmHg 86%
    09:00 +22°C° 0 mm 6 mps 752 mmHg 83%
    10:00 +23°C° 0,2 mm 6 mps 752 mmHg 78%
    11:00 +24°C° 0,2 mm 6 mps 752 mmHg 73%
    12:00 +26°C° 0,2 mm 7 mps 752 mmHg 69%
    13:00 +26°C° 0,9 mm 6 mps 752 mmHg 70%
    14:00 +26°C° 0,9 mm 6 mps 752 mmHg 70%
    15:00 +24°C° 0 mm 6 mps 752 mmHg 75%
    16:00 +23°C° 0,5 mm 5 mps 753 mmHg 79%
    17:00 +22°C° 0,5 mm 4 mps 753 mmHg 83%
    18:00 +21°C° 0,5 mm 4 mps 753 mmHg 87%
    19:00 +19°C° 0 mm 4 mps 754 mmHg 89%
    20:00 +18°C° 0 mm 4 mps 754 mmHg 91%
    21:00 +17°C° 0 mm 3 mps 755 mmHg 93%
    22:00 +16°C° 0 mm 3 mps 755 mmHg 93%
    23:00 +14°C° 0 mm 3 mps 755 mmHg 93%

    Mañana, 17 Agosto, Viernes

    Tiempo Temperatura Precipitaciones Viento Presión Humedad
    00:00 +13°C° 0 mm 3 mps 756 mmHg 94%
    01:00 +12°C° 0 mm 3 mps 756 mmHg 94%
    02:00 +12°C° 0 mm 3 mps 756 mmHg 94%
    03:00 +12°C° 0 mm 2 mps 757 mmHg 94%
    04:00 +12°C° 0 mm 3 mps 757 mmHg 93%
    05:00 +12°C° 0 mm 3 mps 758 mmHg 92%
    06:00 +12°C° 0 mm 3 mps 758 mmHg 90%
    07:00 +14°C° 0 mm 3 mps 758 mmHg 84%
    08:00 +16°C° 0 mm 3 mps 759 mmHg 77%
    09:00 +18°C° 0 mm 3 mps 759 mmHg 71%
    10:00 +19°C° 0 mm 3 mps 759 mmHg 66%
    11:00 +20°C° 0 mm 4 mps 759 mmHg 60%
    12:00 +21°C° 0 mm 4 mps 759 mmHg 55%
    13:00 +21°C° 0 mm 4 mps 759 mmHg 54%
    14:00 +21°C° 0 mm 4 mps 759 mmHg 53%
    15:00 +21°C° 0 mm 4 mps 759 mmHg 52%
    16:00 +20°C° 0 mm 3 mps 759 mmHg 57%
    17:00 +19°C° 0 mm 3 mps 759 mmHg 62%
    18:00 +18°C° 0 mm 3 mps 759 mmHg 67%
    19:00 +17°C° 0 mm 3 mps 759 mmHg 71%
    20:00 +15°C° 0 mm 2 mps 760 mmHg 74%
    21:00 +14°C° 0 mm 2 mps 760 mmHg 78%
    22:00 +13°C° 0 mm 2 mps 760 mmHg 80%
    23:00 +13°C° 0 mm 2 mps 760 mmHg 82%

    Pasado mañana, 18 Agosto, Sábado

    Tiempo Temperatura Precipitaciones Viento Presión Humedad
    00:00 +12°C° 0 mm 2 mps 760 mmHg 84%
    01:00 +10°C° 0 mm 2 mps 761 mmHg 85%
    02:00 +10°C° 0 mm 2 mps 761 mmHg 87%
    03:00 +10°C° 0 mm 2 mps 761 mmHg 88%
    04:00 +10°C° 0 mm 2 mps 761 mmHg 86%
    05:00 +10°C° 0 mm 2 mps 761 mmHg 84%
    06:00 +11°C° 0 mm 3 mps 762 mmHg 82%
    07:00 +12°C° 0 mm 3 mps 762 mmHg 75%
    08:00 +14°C° 0 mm 3 mps 762 mmHg 69%
    09:00 +17°C° 0 mm 4 mps 762 mmHg 62%
    10:00 +18°C° 0 mm 4 mps 762 mmHg 60%
    11:00 +19°C° 0 mm 4 mps 761 mmHg 57%
    12:00 +19°C° 0 mm 4 mps 761 mmHg 55%
    13:00 +20°C° 0 mm 4 mps 761 mmHg 55%
    14:00 +20°C° 0 mm 4 mps 761 mmHg 55%
    15:00 +20°C° 0 mm 4 mps 761 mmHg 56%
    16:00 +19°C° 0 mm 4 mps 761 mmHg 60%
    17:00 +18°C° 0 mm 3 mps 761 mmHg 65%
    18:00 +17°C° 0 mm 3 mps 761 mmHg 70%
    19:00 +16°C° 0 mm 2 mps 761 mmHg 73%
    20:00 +14°C° 0 mm 2 mps 761 mmHg 77%
    21:00 +13°C° 0 mm 2 mps 762 mmHg 81%
    22:00 +12°C° 0 mm 2 mps 762 mmHg 81%
    23:00 +12°C° 0 mm 1 mps 762 mmHg 82%

    19 Agosto, Domingo

    Tiempo Temperatura Precipitaciones Viento Presión Humedad
    00:00 +11°C° 0 mm 1 mps 762 mmHg 82%
    01:00 +11°C° 0 mm 1 mps 762 mmHg 82%
    02:00 +10°C° 0 mm 1 mps 762 mmHg 82%
    03:00 +10°C° 0 mm 1 mps 763 mmHg 83%
    04:00 +10°C° 0 mm 1 mps 763 mmHg 81%
    05:00 +11°C° 0 mm 1 mps 763 mmHg 80%
    06:00 +12°C° 0 mm 1 mps 763 mmHg 78%
    07:00 +14°C° 0 mm 1 mps 763 mmHg 71%
    08:00 +15°C° 0 mm 1 mps 763 mmHg 65%
    09:00 +18°C° 0 mm 1 mps 763 mmHg 58%
    10:00 +18°C° 0 mm 2 mps 762 mmHg 55%
    11:00 +19°C° 0 mm 2 mps 762 mmHg 51%
    12:00 +20°C° 0 mm 2 mps 762 mmHg 48%
    13:00 +22°C° 0 mm 1 mps 762 mmHg 47%
    14:00 +22°C° 0 mm 1 mps 761 mmHg 47%
    15:00 +22°C° 0 mm 1 mps 761 mmHg 46%
    16:00 +21°C° 0 mm 1 mps 761 mmHg 51%
    17:00 +20°C° 0 mm 1 mps 761 mmHg 57%
    18:00 +20°C° 0 mm 1 mps 760 mmHg 62%
    19:00 +18°C° 0 mm 1 mps 761 mmHg 65%
    20:00 +16°C° 0 mm 1 mps 761 mmHg 68%
    21:00 +14°C° 0 mm 1 mps 761 mmHg 71%
    22:00 +14°C° 0 mm 1 mps 761 mmHg 72%
    23:00 +13°C° 0 mm 1 mps 761 mmHg 73%

    20 Agosto, Lunes

    Tiempo Temperatura Precipitaciones Viento Presión Humedad
    00:00 +13°C° 0 mm 1 mps 761 mmHg 74%
    01:00 +13°C° 0 mm 1 mps 761 mmHg 75%
    02:00 +12°C° 0 mm 1 mps 761 mmHg 76%
    03:00 +12°C° 0 mm 1 mps 761 mmHg 78%
    04:00 +12°C° 0 mm 1 mps 761 mmHg 77%
    05:00 +13°C° 0 mm 1 mps 761 mmHg 77%
    06:00 +13°C° 0 mm 1 mps 761 mmHg 77%
    07:00 +15°C° 0 mm 2 mps 761 mmHg 71%
    08:00 +17°C° 0 mm 2 mps 760 mmHg 65%
    09:00 +19°C° 0 mm 2 mps 760 mmHg 60%
    10:00 +20°C° 0 mm 2 mps 760 mmHg 56%
    11:00 +21°C° 0 mm 3 mps 760 mmHg 53%
    12:00 +22°C° 0 mm 3 mps 760 mmHg 50%
    13:00 +22°C° 0 mm 3 mps 760 mmHg 50%
    14:00 +22°C° 0 mm 3 mps 759 mmHg 50%
    15:00 +22°C° 0 mm 4 mps 759 mmHg 51%
    16:00 +21°C° 0 mm 3 mps 759 mmHg 56%
    17:00 +20°C° 0 mm 3 mps 759 mmHg 62%
    18:00 +19°C° 0 mm 3 mps 758 mmHg 67%
    19:00 +18°C° 0 mm 3 mps 758 mmHg 70%
    20:00 +16°C° 0 mm 3 mps 758 mmHg 72%
    21:00 +14°C° 0 mm 3 mps 759 mmHg 74%
    22:00 +14°C° 0 mm 3 mps 758 mmHg 75%
    23:00 +13°C° 0 mm 3 mps 758 mmHg 76%

    21 Agosto, Martes

    Tiempo Temperatura Precipitaciones Viento Presión Humedad
    00:00 +13°C° 0 mm 3 mps 758 mmHg 77%
    01:00 +12°C° 0 mm 3 mps 758 mmHg 78%
    02:00 +12°C° 0 mm 3 mps 758 mmHg 79%
    03:00 +12°C° 0 mm 3 mps 758 mmHg 80%
    04:00 +12°C° 0 mm 3 mps 758 mmHg 80%
    05:00 +13°C° 0 mm 3 mps 758 mmHg 79%
    06:00 +13°C° 0 mm 3 mps 758 mmHg 79%
    07:00 +16°C° 0 mm 3 mps 758 mmHg 75%
    08:00 +18°C° 0 mm 4 mps 758 mmHg 71%
    09:00 +19°C° 0 mm 4 mps 758 mmHg 67%
    10:00 +21°C° 0 mm 4 mps 757 mmHg 64%
    11:00 +22°C° 0 mm 5 mps 757 mmHg 60%
    12:00 +25°C° 0 mm 5 mps 757 mmHg 57%
    13:00 +25°C° 0,1 mm 5 mps 757 mmHg 58%
    14:00 +25°C° 0,1 mm 5 mps 757 mmHg 58%
    15:00 +25°C° 0,1 mm 5 mps 757 mmHg 59%
    16:00 +23°C° 0,2 mm 4 mps 756 mmHg 64%
    17:00 +22°C° 0,2 mm 3 mps 756 mmHg 70%
    18:00 +21°C° 0,2 mm 3 mps 756 mmHg 76%
    19:00 +20°C° 0 mm 2 mps 757 mmHg 80%
    20:00 +19°C° 0 mm 2 mps 757 mmHg 83%
    21:00 +18°C° 0 mm 2 mps 757 mmHg 87%
    22:00 +18°C° 0 mm 1 mps 757 mmHg 88%
    23:00 +18°C° 0 mm 1 mps 757 mmHg 89%
    Mostrar más